When you browse on this site, cookies collect data to enhance your experience and personalize the content and advertising you see.
Visit our Privacy Policy to learn more. By continuing to use the site, you agree to this use of cookies and data.

Hourly Weather Freire

Today, 15 August, Saturday

Time Temperature Precipitation Wind Pressure Humidity
00:00 +5°C° 1 mm 2 mps 756 mmHg 96%
01:00 +5°C° 1 mm 1 mps 756 mmHg 97%
02:00 +5°C° 0.1 mm 1 mps 756 mmHg 96%
03:00 +4°C° 0.1 mm 1 mps 757 mmHg 96%
04:00 +2°C° 0.1 mm 0 mps 757 mmHg 95%
05:00 +2°C° 0 mm 0 mps 757 mmHg 95%
06:00 +2°C° 0 mm 0 mps 758 mmHg 96%
07:00 +2°C° 0 mm 0 mps 758 mmHg 96%
08:00 +4°C° 0 mm 0 mps 758 mmHg 90%
09:00 +5°C° 0 mm 0 mps 759 mmHg 83%
10:00 +8°C° 0 mm 1 mps 759 mmHg 77%
11:00 +9°C° 0.1 mm 1 mps 759 mmHg 74%
12:00 +9°C° 0.1 mm 1 mps 759 mmHg 70%
13:00 +9°C° 0.1 mm 1 mps 758 mmHg 67%
14:00 +9°C° 0.1 mm 1 mps 758 mmHg 68%
15:00 +9°C° 0.1 mm 1 mps 758 mmHg 70%
16:00 +8°C° 0.1 mm 2 mps 758 mmHg 72%
17:00 +7°C° 0 mm 1 mps 758 mmHg 78%
18:00 +5°C° 0 mm 1 mps 759 mmHg 85%
19:00 +3°C° 0 mm 0 mps 759 mmHg 91%
20:00 +4°C° 0 mm 1 mps 759 mmHg 91%
21:00 +4°C° 0 mm 1 mps 759 mmHg 91%
22:00 +4°C° 0 mm 1 mps 759 mmHg 90%
23:00 +4°C° 0 mm 1 mps 759 mmHg 90%

Tomorrow, 16 August, Sunday

Time Temperature Precipitation Wind Pressure Humidity
00:00 +4°C° 0 mm 1 mps 758 mmHg 89%
01:00 +4°C° 0 mm 1 mps 758 mmHg 88%
02:00 +4°C° 0 mm 1 mps 758 mmHg 88%
03:00 +4°C° 0 mm 1 mps 757 mmHg 88%
04:00 +4°C° 0 mm 1 mps 757 mmHg 88%
05:00 +4°C° 0 mm 1 mps 757 mmHg 88%
06:00 +5°C° 0 mm 1 mps 757 mmHg 88%
07:00 +5°C° 0 mm 1 mps 756 mmHg 88%
08:00 +5°C° 0.1 mm 1 mps 756 mmHg 89%
09:00 +5°C° 0.1 mm 1 mps 756 mmHg 90%
10:00 +6°C° 0.1 mm 1 mps 756 mmHg 91%
11:00 +6°C° 0.1 mm 1 mps 756 mmHg 91%
12:00 +6°C° 0.1 mm 1 mps 756 mmHg 92%
13:00 +7°C° 0.1 mm 1 mps 756 mmHg 92%
14:00 +7°C° 0 mm 1 mps 756 mmHg 92%
15:00 +7°C° 0 mm 0 mps 755 mmHg 92%
16:00 +7°C° 0 mm 0 mps 755 mmHg 92%
17:00 +6°C° 0 mm 0 mps 756 mmHg 93%
18:00 +6°C° 0 mm 0 mps 756 mmHg 95%
19:00 +5°C° 0 mm 0 mps 756 mmHg 97%
20:00 +5°C° 0 mm 0 mps 756 mmHg 97%
21:00 +5°C° 0 mm 0 mps 756 mmHg 97%
22:00 +5°C° 0 mm 0 mps 757 mmHg 97%
23:00 +5°C° 0 mm 0 mps 757 mmHg 97%

Day after tomorrow, 17 August, Monday

Time Temperature Precipitation Wind Pressure Humidity
00:00 +4°C° 0 mm 0 mps 756 mmHg 97%
01:00 +4°C° 0 mm 0 mps 756 mmHg 98%
02:00 +3°C° 0 mm 0 mps 756 mmHg 98%
03:00 +3°C° 0 mm 0 mps 756 mmHg 98%
04:00 +2°C° 0 mm 0 mps 756 mmHg 98%
05:00 +2°C° 0 mm 0 mps 756 mmHg 98%
06:00 +2°C° 0 mm 0 mps 756 mmHg 98%
07:00 +2°C° 0 mm 0 mps 756 mmHg 98%
08:00 +4°C° 0 mm 0 mps 756 mmHg 95%
09:00 +5°C° 0 mm 0 mps 755 mmHg 91%
10:00 +7°C° 0 mm 0 mps 755 mmHg 88%
11:00 +8°C° 0 mm 0 mps 755 mmHg 83%
12:00 +10°C° 0 mm 1 mps 754 mmHg 78%
13:00 +11°C° 0 mm 1 mps 754 mmHg 73%
14:00 +10°C° 0.1 mm 1 mps 753 mmHg 77%
15:00 +9°C° 0.1 mm 1 mps 753 mmHg 82%
16:00 +9°C° 0.1 mm 1 mps 753 mmHg 87%
17:00 +8°C° 0 mm 1 mps 753 mmHg 89%
18:00 +8°C° 0 mm 1 mps 753 mmHg 92%
19:00 +7°C° 0 mm 1 mps 753 mmHg 94%
20:00 +7°C° 0.1 mm 1 mps 752 mmHg 95%
21:00 +7°C° 0.1 mm 1 mps 752 mmHg 95%
22:00 +7°C° 0.1 mm 1 mps 752 mmHg 96%
23:00 +6°C° 0.2 mm 2 mps 752 mmHg 96%

18 August, Tuesday

Time Temperature Precipitation Wind Pressure Humidity
00:00 +6°C° 0.2 mm 2 mps 752 mmHg 97%
01:00 +6°C° 0.2 mm 2 mps 752 mmHg 97%
02:00 +6°C° 0.4 mm 2 mps 752 mmHg 97%
03:00 +6°C° 0.4 mm 2 mps 752 mmHg 97%
04:00 +6°C° 0.4 mm 2 mps 752 mmHg 97%
05:00 +7°C° 0.1 mm 1 mps 752 mmHg 97%
06:00 +6°C° 0.1 mm 1 mps 753 mmHg 96%
07:00 +6°C° 0.1 mm 1 mps 753 mmHg 95%
08:00 +7°C° 0.1 mm 1 mps 754 mmHg 90%
09:00 +8°C° 0.1 mm 1 mps 755 mmHg 84%
10:00 +9°C° 0.1 mm 1 mps 755 mmHg 79%
11:00 +8°C° 0.4 mm 2 mps 755 mmHg 79%
12:00 +8°C° 0.4 mm 3 mps 756 mmHg 79%
13:00 +8°C° 0.4 mm 3 mps 756 mmHg 78%
14:00 +8°C° 0.2 mm 3 mps 756 mmHg 79%
15:00 +8°C° 0.2 mm 2 mps 757 mmHg 80%
16:00 +7°C° 0.2 mm 2 mps 757 mmHg 80%
17:00 +6°C° 0 mm 1 mps 758 mmHg 85%
18:00 +5°C° 0 mm 1 mps 759 mmHg 90%
19:00 +2°C° 0 mm 0 mps 760 mmHg 95%
20:00 +2°C° 0 mm 0 mps 760 mmHg 95%
21:00 +2°C° 0 mm 1 mps 761 mmHg 95%
22:00 +2°C° 0 mm 1 mps 761 mmHg 96%
23:00 +1°C° 0 mm 1 mps 762 mmHg 96%

19 August, Wednesday

Time Temperature Precipitation Wind Pressure Humidity
00:00 +1°C° 0 mm 1 mps 762 mmHg 96%
01:00 0°C° 0 mm 1 mps 762 mmHg 97%
02:00 0°C° 0 mm 1 mps 762 mmHg 96%
03:00 0°C° 0 mm 1 mps 763 mmHg 96%
04:00 0°C° 0 mm 1 mps 763 mmHg 96%
05:00 -1°C° 0 mm 1 mps 763 mmHg 95%
06:00 -1°C° 0 mm 1 mps 763 mmHg 94%
07:00 -1°C° 0 mm 1 mps 763 mmHg 94%
08:00 +2°C° 0 mm 1 mps 763 mmHg 83%
09:00 +5°C° 0 mm 1 mps 763 mmHg 72%
10:00 +6°C° 0 mm 2 mps 763 mmHg 62%
11:00 +8°C° 0 mm 2 mps 763 mmHg 55%
12:00 +9°C° 0 mm 2 mps 763 mmHg 49%
13:00 +12°C° 0 mm 2 mps 762 mmHg 42%
14:00 +10°C° 0 mm 2 mps 762 mmHg 48%
15:00 +10°C° 0 mm 2 mps 762 mmHg 53%
16:00 +10°C° 0 mm 2 mps 762 mmHg 58%
17:00 +7°C° 0 mm 2 mps 762 mmHg 66%
18:00 +6°C° 0 mm 1 mps 763 mmHg 75%
19:00 +3°C° 0 mm 1 mps 763 mmHg 83%
20:00 +3°C° 0 mm 1 mps 763 mmHg 85%
21:00 +2°C° 0 mm 1 mps 763 mmHg 86%
22:00 +1°C° 0 mm 1 mps 763 mmHg 88%
23:00 +1°C° 0 mm 1 mps 763 mmHg 87%

20 August, Thursday

Time Temperature Precipitation Wind Pressure Humidity
00:00 0°C° 0 mm 1 mps 763 mmHg 85%
01:00 0°C° 0 mm 1 mps 763 mmHg 84%
02:00 -1°C° 0 mm 1 mps 763 mmHg 83%
03:00 -1°C° 0 mm 1 mps 762 mmHg 82%
04:00 -1°C° 0 mm 1 mps 762 mmHg 81%
05:00 -1°C° 0 mm 1 mps 762 mmHg 80%
06:00 -1°C° 0 mm 1 mps 762 mmHg 78%
07:00 -1°C° 0 mm 1 mps 762 mmHg 76%
08:00 +2°C° 0 mm 1 mps 761 mmHg 66%
09:00 +5°C° 0 mm 1 mps 761 mmHg 56%
10:00 +8°C° 0 mm 1 mps 760 mmHg 46%
11:00 +10°C° 0 mm 1 mps 760 mmHg 45%
12:00 +11°C° 0 mm 1 mps 760 mmHg 43%
13:00 +13°C° 0 mm 2 mps 759 mmHg 42%
14:00 +12°C° 0 mm 1 mps 759 mmHg 48%
15:00 +12°C° 0 mm 1 mps 759 mmHg 54%
16:00 +11°C° 0 mm 1 mps 759 mmHg 60%
17:00 +9°C° 0 mm 1 mps 759 mmHg 69%
18:00 +6°C° 0 mm 1 mps 759 mmHg 78%
19:00 +4°C° 0 mm 1 mps 759 mmHg 87%
20:00 +3°C° 0 mm 1 mps 759 mmHg 89%
21:00 +3°C° 0 mm 1 mps 759 mmHg 91%
22:00 +2°C° 0 mm 1 mps 759 mmHg 94%
23:00 +1°C° 0 mm 0 mps 759 mmHg 94%
Show more